Temp
7 8 7 8 8 8 9 9 9 9 9 9 9 10 11 11 13 14 14 14 14 15 15 16 16 16 16 16 17 18 20 20 21 21 23 22 24 24 24 25 25 26 27 27 27
8 8 8 8 8 9 9 9 9 9 9 9 9 10 10 11 12 13 11 11 11 12 14 15 16 15 15 16 17 19 20 21 22 22 22 24 23 24 24 24 25 25 25 25 26
7 8 8 8 8 9 9 9 9 9 9 9 10 10 10 10 11 11 12 12 11 11 13 13 15 14 15 16 17 18 19 21 21 21 22 23 23 23 23 24 25 25 23 23 25
7 8 8 8 9 9 9 9 9 9 9 9 10 10 10 10 13 11 11 10 11 11 12 12 13 14 16 17 17 18 19 20 21 20 21 22 23 23 23 23 23 22 22 23 22
8 8 8 9 9 9 9 9 8 9 9 9 9 9 10 9 11 10 10 11 11 11 11 11 12 14 16 17 17 18 20 19 19 20 20 20 21 22 22 22 22 21 22 22 22
8 8 9 9 9 9 9 9 8 8 9 9 9 9 8 9 11 10 11 11 11 11 10 11 11 12 13 15 17 19 19 19 19 19 19 20 21 21 21 21 21 21 22 22 22
8 9 9 10 10 10 9 9 9 9 9 9 9 9 8 11 11 11 11 11 11 11 11 12 12 11 12 15 15 16 17 18 18 19 19 19 19 21 20 20 20 21 21 22 23
8 9 9 10 10 10 10 10 10 10 10 9 9 9 10 11 11 11 11 11 11 11 11 12 11 10 11 13 15 16 17 17 19 18 19 19 19 23 23 22 22 22 22 22 22
8 8 9 9 10 10 10 10 10 10 9 9 9 8 11 11 11 11 11 11 11 11 11 11 10 11 12 13 14 16 17 17 18 20 19 19 20 23 22 22 23 22 22 22 22
8 8 9 9 9 10 10 10 10 9 9 9 9 8 11 10 11 11 11 11 10 10 11 10 11 13 13 14 14 15 15 17 18 19 19 19 20 22 22 21 21 22 21 22 22
8 9 9 9 9 9 10 10 9 8 9 8 8 7 10 10 11 11 11 10 9 10 12 11 12 12 13 14 15 15 15 16 17 19 19 19 19 21 21 21 21 21 21 21 21
8 9 9 9 9 9 8 7 6 6 6 9 9 8 10 9 8 11 10 10 10 11 11 11 11 12 12 13 13 14 14 14 15 16 16 18 18 19 19 20 20 20 20 20 20
8 9 9 9 9 8 7 7 6 6 6 7 10 9 10 9 9 11 10 10 10 10 11 11 12 13 12 13 13 13 13 14 14 16 17 16 17 18 19 19 19 19 19 19 20
9 9 9 9 9 8 7 6 6 6 7 9 10 9 9 9 9 10 10 10 11 10 11 11 13 12 12 12 13 12 14 14 14 15 15 17 16 19 19 19 19 19 19 19 19
9 10 9 9 9 8 7 6 6 6 9 10 10 9 9 9 9 11 11 10 10 11 11 11 11 12 12 13 13 13 14 14 14 14 14 15 15 17 20 19 20 20 20 19 19
9 9 10 9 9 8 7 7 6 8 8 8 9 9 9 9 10 10 10 10 10 10 11 11 12 12 12 13 13 14 14 14 14 14 13 15 15 18 19 20 21 21 21 20 20
9 9 9 9 8 8 7 7 8 8 8 8 8 9 9 8 9 10 10 10 9 7 9 10 10 12 12 12 13 13 12 12 11 12 13 16 15 17 19 19 20 20 20 20 20
9 9 9 8 8 8 7 8 7 7 7 9 8 9 8 9 9 9 9 9 9 7 6 7 7 10 12 12 12 12 12 13 11 13 14 15 14 17 19 20 19 19 19 19 20
9 8 8 8 8 7 7 7 7 7 8 8 8 7 7 8 8 8 8 8 9 8 6 6 9 11 11 12 13 12 12 14 12 13 15 15 16 18 18 19 20 20 20 20 19
9 8 8 7 7 7 8 6 7 7 8 8 6 7 6 8 7 8 8 9 9 9 9 8 6 10 9 11 12 12 14 12 13 12 13 15 16 18 18 20 19 20 19 18 17
8 7 7 7 7 7 6 6 6 7 7 7 7 6 6 6 7 7 8 9 9 9 9 9 8 10 10 10 6 9 10 13 13 14 14 15 17 17 18 17 17 19 18 17 15
7 8 7 7 7 1 5 5 5 7 7 7 7 7 7 7 6 7 7 8 9 9 8 8 7 8 9 11 11 10 10 11 12 13 14 14 15 17 16 17 17 18 17 17 13
2 4 6 7 5 5 5 5 5 6 7 6 6 7 7 6 5 6 7 9 8 8 8 8 7 8 10 10 10 10 11 10 10 11 12 13 15 17 17 18 16 17 18 17 13
3 5 5 5 3 4 4 5 6 6 6 6 5 6 5 4 6 5 6 8 8 8 8 7 7 8 8 9 9 9 10 10 9 11 12 13 14 16 16 16 16 16 17 17 15
4 3 1 5 4 3 3 4 5 6 5 5 5 5 4 4 5 5 7 7 7 7 7 7 6 8 8 8 8 8 9 9 10 10 10 13 13 14 15 14 16 16 16 17 16
3 2 2 1 1 3 4 5 5 5 5 5 5 6 5 4 4 4 6 5 4 5 5 5 5 7 6 8 9 8 9 10 10 10 10 11 11 13 13 13 16 16 17 18 17
2 1 0 2 2 3 4 5 4 4 4 5 5 4 4 6 6 5 5 5 4 4 4 4 5 6 7 8 8 8 10 10 11 11 11 10 12 13 13 14 16 16 15 16 16
Height
1526 1524 1523 1521 1519 1517 1515 1512 1510 1508 1506 1504 1503 1501 1499 1497 1494 1491 1489 1490 1490 1491 1491 1493 1496 1497 1501 1501 1502 1501 1503 1497 1493 1494 1489 1486 1485 1485 1485 1484 1482 1480 1481 1483 1484
1526 1524 1522 1520 1518 1516 1514 1511 1509 1507 1505 1502 1500 1498 1497 1493 1489 1485 1486 1486 1489 1488 1489 1490 1493 1496 1499 1498 1498 1496 1490 1486 1480 1482 1484 1484 1484 1484 1484 1483 1480 1479 1482 1484 1486
1526 1524 1521 1519 1517 1514 1512 1510 1508 1506 1504 1501 1498 1496 1492 1490 1486 1487 1486 1486 1486 1485 1485 1485 1488 1492 1494 1494 1490 1487 1478 1475 1473 1477 1482 1481 1481 1483 1482 1478 1476 1477 1479 1480 1482
1526 1523 1520 1518 1515 1512 1510 1508 1507 1505 1503 1500 1497 1495 1493 1491 1491 1489 1488 1484 1483 1483 1483 1483 1484 1487 1489 1484 1485 1483 1475 1474 1473 1478 1480 1478 1479 1475 1477 1472 1473 1473 1476 1475 1477
1524 1522 1519 1516 1514 1511 1509 1507 1505 1503 1500 1498 1497 1494 1491 1490 1488 1487 1485 1483 1481 1480 1481 1482 1483 1485 1479 1479 1482 1475 1470 1472 1474 1477 1478 1478 1469 1472 1466 1467 1467 1469 1469 1469 1470
1523 1520 1518 1515 1512 1510 1508 1506 1504 1501 1498 1496 1493 1491 1490 1489 1486 1484 1481 1480 1480 1479 1478 1480 1481 1481 1480 1477 1474 1467 1470 1470 1470 1472 1474 1476 1465 1471 1454 1466 1463 1462 1462 1465 1465
1522 1519 1516 1513 1510 1508 1506 1504 1502 1500 1496 1494 1492 1489 1488 1488 1484 1483 1481 1480 1478 1476 1475 1476 1479 1480 1478 1477 1471 1469 1469 1468 1464 1466 1466 1473 1467 1447 1458 1457 1459 1455 1457 1454 1455
1521 1517 1514 1512 1509 1507 1504 1502 1499 1497 1494 1492 1491 1489 1485 1484 1482 1481 1479 1476 1476 1474 1474 1473 1474 1476 1476 1474 1469 1467 1467 1464 1451 1461 1459 1468 1456 1428 1451 1452 1447 1447 1448 1448 1448
1519 1515 1512 1510 1507 1504 1502 1499 1497 1494 1493 1492 1491 1491 1487 1484 1481 1478 1476 1473 1471 1471 1470 1470 1471 1472 1474 1472 1471 1461 1450 1447 1449 1447 1456 1459 1437 1435 1443 1444 1438 1440 1441 1441 1440
1517 1514 1511 1508 1505 1502 1500 1497 1494 1493 1492 1490 1490 1491 1487 1484 1480 1477 1474 1472 1469 1469 1469 1470 1469 1464 1464 1463 1451 1452 1454 1448 1443 1444 1449 1448 1430 1438 1438 1438 1435 1437 1438 1437 1436
1516 1512 1509 1506 1503 1501 1499 1497 1497 1495 1492 1490 1490 1490 1486 1484 1478 1475 1472 1469 1468 1468 1464 1466 1465 1455 1457 1457 1455 1452 1452 1445 1443 1440 1441 1438 1429 1432 1436 1435 1432 1431 1431 1431 1428
1514 1511 1507 1504 1502 1501 1499 1498 1500 1502 1494 1487 1486 1486 1484 1482 1477 1473 1471 1470 1467 1464 1464 1465 1459 1458 1461 1456 1456 1455 1455 1453 1449 1443 1444 1436 1430 1430 1431 1428 1427 1426 1424 1424 1421
1512 1509 1506 1503 1502 1501 1500 1500 1500 1500 1500 1487 1485 1484 1483 1480 1475 1471 1469 1467 1464 1462 1461 1456 1449 1453 1453 1452 1451 1449 1450 1450 1450 1444 1441 1440 1430 1425 1421 1422 1420 1418 1417 1414 1411
1510 1506 1503 1502 1503 1501 1501 1500 1498 1497 1496 1487 1483 1483 1481 1475 1473 1468 1466 1466 1462 1459 1456 1451 1446 1449 1448 1447 1446 1445 1444 1443 1445 1448 1443 1435 1425 1411 1411 1411 1411 1411 1410 1406 1405
1507 1502 1500 1499 1501 1500 1501 1498 1495 1497 1486 1486 1483 1482 1480 1479 1475 1466 1465 1461 1458 1456 1457 1445 1445 1444 1442 1441 1440 1441 1442 1442 1444 1444 1444 1435 1437 1403 1404 1399 1399 1401 1401 1399 1396
1505 1499 1496 1498 1499 1499 1497 1495 1496 1495 1487 1484 1483 1481 1478 1473 1469 1464 1462 1459 1455 1452 1449 1440 1441 1442 1439 1437 1437 1436 1436 1439 1442 1442 1441 1433 1437 1393 1395 1391 1392 1392 1391 1391 1388
1502 1499 1497 1498 1499 1497 1495 1495 1494 1488 1489 1485 1483 1480 1476 1472 1468 1466 1462 1457 1455 1457 1444 1437 1431 1431 1434 1435 1434 1435 1436 1435 1443 1440 1430 1421 1431 1396 1383 1391 1391 1388 1387 1386 1382
1501 1499 1498 1498 1498 1496 1494 1494 1494 1491 1489 1486 1483 1478 1474 1471 1467 1465 1462 1457 1454 1458 1455 1442 1436 1429 1427 1427 1428 1428 1428 1424 1429 1421 1416 1423 1417 1393 1385 1385 1387 1385 1383 1381 1377
1500 1499 1498 1498 1497 1495 1494 1492 1491 1492 1489 1486 1482 1478 1474 1473 1473 1466 1462 1459 1453 1455 1458 1451 1432 1428 1426 1426 1424 1423 1425 1419 1423 1414 1410 1407 1398 1388 1388 1383 1383 1383 1381 1377 1373
1499 1498 1498 1497 1496 1494 1494 1494 1492 1491 1490 1487 1486 1481 1477 1472 1472 1468 1463 1455 1453 1452 1452 1448 1446 1429 1432 1425 1423 1423 1414 1423 1420 1417 1413 1395 1396 1384 1381 1379 1383 1381 1379 1374 1369
1498 1497 1497 1496 1495 1494 1495 1495 1493 1490 1490 1487 1483 1480 1478 1475 1471 1468 1462 1454 1453 1451 1450 1446 1445 1433 1429 1428 1439 1430 1426 1411 1410 1406 1402 1396 1382 1375 1380 1384 1385 1384 1380 1375 1368
1498 1497 1497 1495 1496 1500 1497 1497 1496 1488 1488 1486 1483 1479 1475 1473 1470 1466 1461 1456 1453 1453 1448 1447 1445 1438 1428 1424 1426 1426 1423 1418 1410 1407 1405 1406 1392 1378 1381 1384 1386 1383 1379 1375 1370
1501 1498 1497 1495 1497 1498 1498 1495 1493 1490 1486 1485 1481 1479 1476 1474 1474 1464 1459 1454 1453 1452 1448 1447 1443 1435 1421 1422 1422 1422 1420 1421 1420 1416 1410 1406 1389 1376 1377 1379 1384 1381 1377 1374 1371
1505 1501 1498 1497 1500 1500 1498 1491 1488 1486 1484 1484 1481 1478 1475 1474 1469 1465 1457 1453 1451 1450 1448 1447 1441 1438 1431 1426 1430 1426 1421 1420 1422 1414 1405 1402 1392 1379 1381 1385 1383 1379 1377 1374 1373
1508 1508 1508 1500 1499 1500 1500 1494 1488 1485 1485 1482 1477 1476 1475 1468 1466 1457 1450 1447 1448 1446 1446 1444 1438 1434 1433 1431 1428 1425 1420 1418 1416 1415 1414 1403 1391 1386 1389 1390 1384 1380 1378 1376 1376
1511 1511 1508 1504 1501 1499 1495 1489 1486 1484 1485 1478 1474 1471 1471 1467 1463 1452 1448 1446 1443 1442 1441 1442 1434 1432 1433 1425 1422 1417 1411 1410 1409 1410 1409 1408 1394 1393 1392 1390 1383 1379 1376 1374 1372
1510 1509 1508 1502 1500 1499 1493 1489 1487 1487 1479 1476 1473 1470 1464 1457 1452 1444 1441 1436 1437 1437 1438 1437 1430 1429 1421 1420 1417 1412 1398 1396 1397 1397 1399 1397 1389 1389 1387 1384 1381 1376 1374 1372 1370
Wind_Speed
12 13 13 13 13 13 13 13 13 14 15 17 18 18 18 19 18 18 20 14 15 17 18 16 11 4 16 11 13 11 7 12 14 12 8 1 4 4 3 7 4 6 6 4 10
14 14 14 15 15 15 14 13 13 14 16 18 19 19 18 19 20 15 4 2 3 8 13 19 17 11 9 11 11 12 10 16 10 14 8 16 10 5 3 5 5 4 8 9 11
16 16 16 17 17 17 15 15 14 14 15 16 18 20 20 20 15 3 3 3 13 13 9 7 15 13 17 11 16 13 19 20 19 21 18 18 15 6 6 11 15 7 4 9 9
17 17 17 17 18 17 16 15 16 18 17 18 19 19 17 16 4 5 10 19 21 14 9 4 11 10 10 18 20 14 22 27 20 9 12 18 21 20 20 25 17 22 23 24 21
17 17 17 17 16 15 13 14 16 20 19 17 17 19 19 13 4 13 15 16 17 16 10 5 10 14 14 11 21 23 23 19 29 19 16 13 27 23 26 26 26 28 30 28 25
17 17 17 16 14 13 10 10 14 19 19 18 20 25 16 5 10 13 10 12 10 15 12 7 4 12 10 15 19 14 25 29 22 20 25 20 30 24 31 20 23 26 29 28 25
17 16 16 16 15 15 14 14 15 17 21 18 19 17 8 6 18 13 16 17 14 14 16 8 13 9 3 12 14 21 20 15 17 28 17 11 22 34 32 32 30 36 32 37 36
17 16 16 16 15 14 13 14 17 19 16 14 16 14 5 17 22 23 19 16 14 8 13 8 14 8 12 9 10 11 15 22 25 14 12 19 30 37 29 30 36 35 36 34 32
19 17 15 15 15 13 14 16 18 12 8 13 8 8 5 16 23 24 20 19 14 7 10 6 7 10 7 13 9 13 21 26 22 24 17 19 31 28 32 23 25 26 25 24 26
21 18 17 16 15 13 15 17 13 3 12 5 4 5 5 17 25 19 16 17 11 6 2 2 6 9 12 13 20 17 20 20 21 13 21 25 33 22 17 15 23 24 25 28 31
22 20 17 14 13 10 17 15 7 2 15 5 8 8 17 16 22 16 14 12 7 6 6 2 8 16 18 19 20 16 9 21 18 10 21 25 28 24 24 30 32 33 33 34 36
24 22 18 12 9 8 13 7 7 7 9 10 11 13 13 12 9 15 8 3 2 10 5 5 15 14 12 13 17 21 20 12 9 10 7 15 21 18 17 20 27 30 32 34 35
24 23 17 9 4 8 7 6 5 11 4 10 8 5 8 18 8 11 8 6 5 9 12 15 15 7 10 16 18 17 22 21 11 10 14 14 23 23 21 23 28 33 35 35 35
26 24 17 7 1 8 1 10 11 7 3 3 2 2 12 17 5 18 6 8 3 7 8 13 13 12 15 12 18 18 10 13 19 15 13 4 12 13 12 17 17 23 28 32 33
27 24 15 4 3 5 7 10 9 6 4 7 2 4 19 4 10 7 10 3 10 13 7 19 14 10 15 13 12 17 15 11 6 9 12 20 12 19 14 22 19 18 26 31 34
27 18 8 4 4 8 12 10 6 2 4 3 5 12 17 10 16 9 14 13 11 10 14 22 25 14 16 13 9 10 16 17 15 11 14 18 11 23 18 21 20 23 28 25 26
23 11 6 4 4 11 16 2 2 3 5 4 8 12 17 5 12 12 16 12 5 6 9 13 16 11 18 16 11 9 11 9 11 13 18 6 13 23 3 9 12 9 16 22 20
17 2 4 2 5 11 14 1 3 1 4 6 8 18 4 6 10 12 11 10 1 1 7 4 4 3 12 20 18 14 15 9 16 14 19 13 12 8 9 10 13 16 19 18 19
14 1 2 2 6 11 5 0 1 2 4 8 15 5 3 2 8 8 12 8 3 1 4 5 2 6 5 6 13 13 10 19 6 4 11 12 19 17 16 16 10 12 13 20 20
15 3 2 3 7 9 2 2 2 3 8 7 5 3 6 9 9 7 7 4 6 5 2 2 6 2 7 9 4 8 5 10 9 6 8 9 18 9 7 7 3 12 18 25 25
11 1 6 6 9 3 2 3 5 7 10 4 5 8 7 10 6 8 6 11 2 10 9 6 3 3 5 6 7 9 7 6 7 11 3 3 3 2 6 11 11 14 22 24 21
9 1 6 8 2 2 1 5 9 6 2 5 6 10 11 11 8 8 7 5 10 9 10 4 3 5 10 8 7 7 4 9 8 17 10 8 5 4 12 10 15 19 24 29 15
11 5 5 8 2 3 4 5 5 5 6 4 5 4 6 6 7 8 9 8 14 9 4 3 1 6 7 4 4 1 3 2 5 6 12 12 6 9 7 19 21 25 29 27 15
7 3 4 6 3 2 6 4 6 5 11 5 7 9 5 6 9 6 15 10 10 13 11 5 6 10 9 8 8 10 10 8 5 8 13 16 23 26 20 19 22 30 25 25 13
7 2 3 4 2 9 4 5 9 6 2 9 3 7 7 6 16 18 13 14 13 10 9 4 9 11 14 15 14 17 19 17 14 14 11 13 24 23 17 19 22 26 24 24 14
6 4 4 7 9 7 3 3 7 5 5 10 12 14 15 15 18 23 21 14 8 4 9 7 7 10 12 16 17 20 20 20 19 18 18 20 29 20 26 29 24 29 26 24 16
8 6 3 5 4 3 3 4 9 16 12 12 15 15 16 18 21 29 31 33 20 10 5 4 4 5 11 8 9 13 22 24 19 17 16 20 24 22 20 18 19 23 22 26 19
Wind_Direction
11 11 10 4 359 355 351 346 339 334 333 331 331 329 330 326 319 308 298 270 259 255 251 252 236 210 213 213 206 186 221 237 230 213 229 289 255 264 239 267 273 179 109 80 169
9 7 2 359 357 351 346 342 339 336 332 330 329 332 339 334 326 319 343 337 342 321 277 246 235 218 207 213 202 204 218 226 222 218 224 243 246 262 296 267 266 236 102 115 127
5 2 358 357 354 351 351 352 349 344 342 341 340 342 343 340 337 33 77 5 338 335 333 284 231 205 223 214 208 217 233 229 228 224 222 244 263 258 254 268 252 236 284 309 264
0 358 356 355 354 354 355 360 354 347 345 343 343 345 337 340 349 6 314 304 300 312 319 303 215 198 225 220 215 241 235 242 250 234 227 241 261 253 245 251 262 277 285 288 281
359 356 354 356 358 356 358 359 350 349 346 339 350 344 344 331 327 340 326 296 306 318 302 276 220 217 226 223 230 236 239 241 245 246 241 257 262 257 264 263 269 276 281 278 273
358 357 355 355 357 358 353 353 345 347 346 348 346 341 342 342 353 352 18 8 335 341 342 253 229 236 267 245 227 240 242 246 245 243 243 246 261 268 258 249 263 274 274 272 276
356 354 351 350 353 354 351 346 344 331 331 329 337 343 337 13 357 358 321 323 332 344 352 301 234 242 264 257 254 256 258 248 236 235 236 205 269 251 251 260 263 265 269 278 278
354 350 348 345 346 348 346 344 336 330 332 339 335 341 310 359 352 351 346 322 315 334 345 307 215 251 232 286 272 234 233 243 233 216 229 195 250 255 257 256 258 263 266 266 269
354 349 348 344 345 347 346 341 333 329 340 335 339 342 327 347 346 347 345 341 308 283 336 258 204 212 219 225 257 225 238 229 242 219 217 201 244 253 257 262 257 260 263 265 268
356 352 350 344 343 343 342 342 345 335 346 7 339 328 331 330 335 338 334 328 297 271 42 211 204 223 216 209 223 235 241 255 245 220 218 224 244 250 245 260 258 254 263 268 269
352 350 349 342 343 348 340 355 10 292 327 269 290 277 290 323 337 336 336 317 267 250 244 215 247 231 234 232 241 259 313 256 252 226 225 228 245 244 246 253 259 263 264 266 267
346 347 346 341 347 351 348 30 29 337 313 301 293 271 325 329 293 331 345 316 262 265 201 210 249 260 261 248 240 245 252 260 273 259 245 246 256 257 253 253 258 263 266 266 272
342 340 340 332 341 354 353 13 344 333 271 295 301 278 328 326 292 323 307 313 265 275 256 247 257 262 249 242 241 237 241 242 254 287 275 274 271 259 253 252 257 260 263 267 267
340 332 329 326 329 340 11 341 319 309 267 281 349 229 342 331 250 322 305 306 257 289 278 249 254 241 246 245 236 240 229 233 234 243 249 213 271 254 245 255 246 257 258 260 263
341 331 322 293 307 354 332 323 320 153 298 340 327 325 336 324 301 325 329 304 271 277 277 268 270 248 238 238 223 241 229 248 262 256 258 253 269 265 247 261 258 258 260 258 258
343 338 336 151 27 350 343 337 139 226 262 342 319 335 341 328 330 302 321 319 285 279 268 268 260 247 244 250 233 246 212 218 240 250 246 243 239 275 253 261 265 255 264 266 270
346 352 88 89 12 351 344 116 250 223 350 338 327 329 326 306 334 328 326 318 312 321 309 302 249 240 226 250 241 229 215 190 211 217 238 238 213 242 157 309 283 271 285 290 287
349 34 104 68 354 346 340 162 225 30 296 313 321 316 300 345 330 329 317 318 52 250 292 290 335 202 215 220 229 224 213 215 213 212 236 207 231 245 260 255 291 279 284 295 297
353 136 112 24 346 343 341 115 218 273 293 314 317 303 314 274 331 327 317 294 338 3 356 303 308 318 279 288 224 210 210 226 297 244 224 200 243 267 268 268 283 320 321 325 315
353 161 53 2 342 340 49 291 247 243 316 309 290 266 297 316 317 330 305 264 321 359 295 221 292 259 305 350 294 241 218 189 215 223 207 212 233 235 186 246 355 358 346 337 330
355 154 3 331 335 26 51 289 297 290 313 296 279 282 277 300 294 308 271 292 308 329 333 299 241 290 288 179 227 298 254 210 247 237 280 270 164 214 120 67 28 358 358 347 343
357 283 358 348 343 40 338 322 313 300 358 287 271 270 269 285 282 282 250 266 322 341 322 331 307 289 283 289 263 266 290 238 244 225 240 284 272 125 105 38 360 351 349 354 349
346 308 349 358 27 339 311 280 270 293 314 302 277 285 303 288 296 255 273 292 292 296 289 343 274 308 302 195 109 132 263 270 290 267 253 244 247 156 284 329 337 336 338 344 345
353 329 354 54 63 346 331 280 314 267 284 256 275 296 275 279 258 279 284 295 282 288 285 270 248 252 259 302 319 297 285 267 260 259 247 237 266 268 296 320 325 327 336 342 335
5 30 353 316 346 314 295 275 293 293 277 302 269 229 280 285 300 279 287 290 289 284 275 253 254 246 260 274 276 275 275 272 259 250 254 261 257 269 288 307 316 315 322 327 322
4 347 318 285 296 297 295 273 303 328 317 296 270 295 295 284 284 289 290 278 249 231 239 218 237 217 250 258 264 270 267 263 260 258 253 253 263 273 284 288 296 301 306 313 319
335 313 293 282 301 296 287 312 304 317 292 249 293 300 295 291 300 287 280 274 258 252 230 231 203 215 256 268 280 273 251 246 254 251 243 244 254 260 269 277 284 294 300 301 302